Regional Weather Roundup
Issued by NWS Midland/Odessa, TX

Current Version | Previous Version | Text Only | Print | Product List | Glossary On
Versions: 1 2 3 4 5 6 7 8 9 10 11 12 13 14 15 16 17 18 19 20 21 22 23 24 25 26 27 28 29 30 31 32 33 34 35 36 37 38 39 40 41 42 43 44 45 46 47 48 49 50
000
ASUS44 KMAF 260701
RWRMAF
MIDLAND AREA WEATHER ROUNDUP
NATIONAL WEATHER SERVICE MIDLAND TX
100 AM CST SUN JAN 26 2020

...IN SOUTHWEST TEXAS AND SOUTHEAST NEW MEXICO...

CITY           SKY/WX    TMP DP  RH WIND       PRES   REMARKS
ALPINE         CLEAR     41  28  58 S6        30.17S WCI  38
ANDREWS        FAIR      42  27  54 NW8       30.05S WCI  37
ARTESIA        CLEAR     43  25  49 W9        30.08  WCI  37
BIG SPRING     CLEAR     43  40  90 SE7       30.02S WCI  39
CARLSBAD       CLEAR     44  24  45 NW8       30.06S WCI  39
DRYDEN         NOT AVBL
FORT STOCKTON  CLEAR     50  29  44 SW10      30.05S
GUAD PASS      CLEAR     46  22  38 SW12      30.14F
HOBBS          CLEAR     45  25  45 NW13      30.06S WCI  38
LAMESA         NOT AVBL
MARFA          CLEAR     36  27  69 NW5       30.15R WCI  32
MIDLAND AIRPK  CLEAR     46  33  60 W7        30.04S
MIDLAND INTL   CLEAR     42  33  70 W6        30.03S WCI  38
ODESSA         CLEAR     45  35  68 W6        30.04F
PECOS          CLEAR     48  23  37 W8        30.05S
PRESIDIO       FAIR      51  33  50 CALM      30.10S
SEMINOLE       CLEAR     41  26  54 NW3       30.10R
SNYDER         CLEAR     45  32  59 SE7       30.03R
WINK           CLEAR     41  25  53 N9        30.03F WCI  35
$$
...OTHER STATIONS IN TEXAS...

CITY           SKY/WX    TMP DP  RH WIND       PRES   REMARKS
ABILENE        CLEAR     49  49 100 SW6       30.00R
AMARILLO       CLEAR     33  29  85 SW6       30.02S WCI  28
AUSTIN         CLOUDY    59  58  96 CALM      30.00F FOG
BROWNSVILLE    CLOUDY    67  65  93 SE5       29.99F
CORPUS CHRISTI MOCLDY    66  65  96 S10       29.98F
DALLAS FTW     CLOUDY    57  53  86 S12       29.95F
DEL RIO        CLOUDY    59  56  89 CALM      30.02S
EL PASO        CLEAR     48  28  46 E7        30.10F
HOUSTON INT    CLOUDY    59  56  89 E5        30.01F
LUBBOCK        PTCLDY    35  27  72 W6        30.04R WCI  30
SAN ANGELO     CLEAR     45  43  93 SW7       30.01F FOG
SAN ANTONIO    LGT RAIN  60  59  96 CALM      30.01F VSB 1/8
WACO           CLOUDY    57  55  93 S10       30.00S
WICHITA FALLS  CLOUDY    36  32  85 N5        30.01S WCI  32
$$
...OTHER LOCATIONS IN NEW MEXICO...

CITY           SKY/WX    TMP DP  RH WIND       PRES   REMARKS
ALAMOGORDO     CLEAR     45  27  49 NE9       30.12  WCI  40
ALBUQUERQUE    CLEAR     39  24  55 N6        30.19R WCI  35
CANNON AFB     CLEAR     33  25  73 NW6       30.07F WCI  27
CLOVIS         CLEAR     29  24  82 N7        30.07F WCI  22
HOLLOMAN AFB   CLEAR     36  25  64 NW6       30.12R WCI  32
ROSWELL        CLEAR     44  26  49 N5        30.06S
RUIDOSO        CLEAR     39  23  52 W9        30.16S WCI  33
SANTA FE       CLEAR     35  25  66 N12       30.16S WCI  27
TRUTH OR CONSE CLEAR     46  25  43 NW10      30.15R
TUCUMCARI      CLEAR     34  25  69 SW3       30.03S
$$




USA.gov is the U.S. government's official web portal to all federal, state and local government web resources and services.